星链-32427 (STARLINK-32427)

导读

STARLINK-32427是美国SpaceX公司星链星座的一员,于2024年11月7日发射入轨,属于星链低轨卫星互联网星座组网部署的组成部分。它运行在近地轨道,依托星链大规模星座架构,为全球提供低延迟高速互联网接入服务,尤其覆盖偏远地区与特殊场景,是SpaceX推进全球卫星互联网络建设的重要节点卫星,延续星链技术方案,助力星座覆盖与服务能力持续扩展。

Basic Information
目录编号:
61848
目录名称:
STARLINK-32427
国际标识:
2024-202D
轨道中心:
EARTH
卫星名称:
星链-32427
卫星全名:
星链-32427 (STARLINK-32427)
卫星状态:
在轨 (已飞行666 天)
发射日期:
2024-11-07 UTC
国别 :
美国 (US)
星等 :
--
Orbit Information
数据来源 国际轨道数据 AOE轨道数据
星历时间 2026-09-04T12:18:57+0800
12小时前
查看轨道信息
2026-09-03T17:00:00+0800
1天前
查看轨道信息
半长轴 6861.199km 6861.191km
偏心率 0.0001025 0.0000994
轨道倾角 43.002° 43.002°
近地点辐角 281.335° 287.382°
升交点赤经 298.878° 303.423°
平近点角 78.739° 321.505°
近地点 482.358km 482.371km
远地点 483.766km 483.737km
周期 94.267分钟 94.267分钟
每日圈数 15.27576 15.275785
Detailed Information
固有亮度:
5
最大亮度:
2.5
卫星平台:
Starlink V1.0
覆盖范围:
全球
运营商:
太空探索技术公司
运营商所在国:
美国
制造商(研发单位):
太空探索技术公司
制造商所在国:
美国
使用方式:
暂无
Satellite Introduction
Starlink 计划是 SpaceX 推出的全球卫星互联网项目,通过发射低轨道卫星,为全球尤其是偏远地区提供高速、低延迟的互联网服务。自 2019 年起,Starlink 已部署数千颗卫星,旨在缩小全球数字鸿沟,推动互联网普及。该项目还为军事、航空等行业提供通信支持,带来广泛经济效益。
2D Orbit Map
3D Orbit Map
Orbit Altitude Analysis Chart
Orbit Inclination Analysis Chart
Orbit Comprehensive Analysis Chart
View Comprehensive Chart